Time,TemperatureF,DewpointF,PressureIn,WindDirection,WindDirectionDegrees,WindSpeedMPH,WindSpeedGustMPH,Humidity,HourlyPrecipIn,Conditions,Clouds,dailyrainin,SoftwareType,DateUTC
2013-11-08 00:11:00,33.9,23.0,29.84,WSW,241,0.0,-999.0,65,-99.99,,,0.11,weatherlink.com 1.10,2013-11-08 05:11:00,
2013-11-08 00:26:00,33.7,23.0,29.84,WSW,253,0.0,-999.0,66,-99.99,,,0.11,weatherlink.com 1.10,2013-11-08 05:26:00,
2013-11-08 00:41:00,32.9,23.0,29.84,SSE,167,0.0,-999.0,67,-99.99,,,0.11,weatherlink.com 1.10,2013-11-08 05:41:00,
2013-11-08 00:56:00,32.1,23.0,29.83,SSE,167,0.0,-999.0,69,-99.99,,,0.11,weatherlink.com 1.10,2013-11-08 05:56:00,
2013-11-08 01:11:00,31.6,23.0,29.83,SSE,168,0.0,-999.0,70,-99.99,,,0.11,weatherlink.com 1.10,2013-11-08 06:11:00,
2013-11-08 01:26:00,31.3,23.0,29.84,SSE,168,0.0,-999.0,72,-99.99,,,0.11,weatherlink.com 1.10,2013-11-08 06:26:00,
2013-11-08 01:41:00,31.2,23.0,29.84,SSE,168,0.0,-999.0,71,-99.99,,,0.11,weatherlink.com 1.10,2013-11-08 06:41:00,
2013-11-08 01:56:00,30.8,23.0,29.83,SSE,168,0.0,-999.0,72,-99.99,,,0.11,weatherlink.com 1.10,2013-11-08 06:56:00,
2013-11-08 02:11:00,29.9,23.0,29.83,South,169,0.0,-999.0,74,-99.99,,,0.11,weatherlink.com 1.10,2013-11-08 07:11:00,
2013-11-08 02:26:00,29.6,23.0,29.83,SSW,210,0.0,-999.0,77,-99.99,,,0.11,weatherlink.com 1.10,2013-11-08 07:26:00,
2013-11-08 02:41:00,30.0,23.0,29.84,WSW,254,1.0,-999.0,75,-99.99,,,0.00,weatherlink.com 1.10,2013-11-08 07:41:00,
2013-11-08 02:56:00,29.3,23.0,29.84,WSW,253,0.0,-999.0,77,-99.99,,,0.00,weatherlink.com 1.10,2013-11-08 07:56:00,
2013-11-08 03:11:00,27.8,23.0,29.84,WSW,253,0.0,-999.0,82,-99.99,,,0.00,weatherlink.com 1.10,2013-11-08 08:11:00,
2013-11-08 03:26:00,27.8,22.0,29.84,WSW,253,0.0,-999.0,79,-99.99,,,0.00,weatherlink.com 1.10,2013-11-08 08:26:00,
2013-11-08 03:42:00,27.6,22.0,29.84,WSW,241,3.0,-999.0,80,-99.99,,,0.00,weatherlink.com 1.10,2013-11-08 08:42:00,
2013-11-08 03:57:00,27.7,22.0,29.85,WSW,240,0.0,-999.0,79,-99.99,,,0.00,weatherlink.com 1.10,2013-11-08 08:57:00,
2013-11-08 04:12:00,26.8,22.0,29.86,WSW,240,0.0,-999.0,83,-99.99,,,0.00,weatherlink.com 1.10,2013-11-08 09:12:00,
2013-11-08 04:27:00,26.3,22.0,29.86,WSW,240,0.0,-999.0,85,-99.99,,,0.00,weatherlink.com 1.10,2013-11-08 09:27:00,
2013-11-08 04:42:00,26.4,22.0,29.85,WSW,238,0.0,-999.0,84,-99.99,,,0.00,weatherlink.com 1.10,2013-11-08 09:42:00,
2013-11-08 04:57:00,26.2,22.0,29.85,West,270,1.0,-999.0,83,-99.99,,,0.00,weatherlink.com 1.10,2013-11-08 09:57:00,
2013-11-08 05:12:00,26.3,22.0,29.85,SSW,205,3.0,-999.0,83,-99.99,,,0.00,weatherlink.com 1.10,2013-11-08 10:12:00,
2013-11-08 05:27:00,25.3,21.0,29.86,SSW,205,0.0,-999.0,85,-99.99,,,0.00,weatherlink.com 1.10,2013-11-08 10:27:00,
2013-11-08 05:42:00,25.2,22.0,29.86,WSW,242,0.0,-999.0,87,-99.99,,,0.00,weatherlink.com 1.10,2013-11-08 10:42:00,
2013-11-08 05:57:00,25.4,22.0,29.87,WSW,241,0.0,-999.0,86,-99.99,,,0.00,weatherlink.com 1.10,2013-11-08 10:57:00,
2013-11-08 06:12:00,25.6,22.0,29.87,WSW,242,3.0,-999.0,86,-99.99,,,0.00,weatherlink.com 1.10,2013-11-08 11:12:00,
2013-11-08 06:27:00,25.3,21.0,29.87,WSW,242,0.0,-999.0,85,-99.99,,,0.00,weatherlink.com 1.10,2013-11-08 11:27:00,
2013-11-08 06:42:00,24.8,22.0,29.88,WSW,241,0.0,-999.0,87,-99.99,,,0.00,weatherlink.com 1.10,2013-11-08 11:42:00,
2013-11-08 06:57:00,25.1,22.0,29.89,WSW,241,0.0,-999.0,89,-99.99,,,0.00,weatherlink.com 1.10,2013-11-08 11:57:00,
2013-11-08 07:12:00,26.6,24.0,29.89,WSW,241,0.0,-999.0,89,-99.99,,,0.00,weatherlink.com 1.10,2013-11-08 12:12:00,
2013-11-08 07:27:00,26.5,24.0,29.89,WSW,241,0.0,-999.0,89,-99.99,,,0.00,weatherlink.com 1.10,2013-11-08 12:27:00,
2013-11-08 07:42:00,27.5,25.0,29.89,WSW,241,0.0,-999.0,90,-99.99,,,0.00,weatherlink.com 1.10,2013-11-08 12:42:00,
2013-11-08 07:57:00,30.5,26.0,29.90,WSW,241,0.0,-999.0,84,-99.99,,,0.00,weatherlink.com 1.10,2013-11-08 12:57:00,
2013-11-08 08:12:00,30.5,27.0,29.91,WSW,241,0.0,-999.0,86,-99.99,,,0.00,weatherlink.com 1.10,2013-11-08 13:12:00,
2013-11-08 08:27:00,30.3,26.0,29.91,WSW,241,0.0,-999.0,83,-99.99,,,0.00,weatherlink.com 1.10,2013-11-08 13:27:00,
2013-11-08 08:42:00,31.5,27.0,29.91,WSW,241,0.0,-999.0,84,-99.99,,,0.00,weatherlink.com 1.10,2013-11-08 13:42:00,
2013-11-08 08:57:00,31.3,27.0,29.90,WSW,241,0.0,-999.0,83,-99.99,,,0.00,weatherlink.com 1.10,2013-11-08 13:57:00,
2013-11-08 09:12:00,31.6,27.0,29.90,WSW,241,0.0,-999.0,83,-99.99,,,0.00,weatherlink.com 1.10,2013-11-08 14:12:00,
2013-11-08 09:27:00,32.5,28.0,29.90,WSW,242,0.0,-999.0,84,-99.99,,,0.00,weatherlink.com 1.10,2013-11-08 14:27:00,
2013-11-08 09:42:00,32.6,28.0,29.90,WSW,242,0.0,-999.0,84,-99.99,,,0.00,weatherlink.com 1.10,2013-11-08 14:42:00,
2013-11-08 09:57:00,34.1,28.0,29.90,WSW,242,0.0,-999.0,79,-99.99,,,0.00,weatherlink.com 1.10,2013-11-08 14:57:00,
2013-11-08 10:12:00,34.4,29.0,29.90,WSW,242,0.0,-999.0,79,-99.99,,,0.00,weatherlink.com 1.10,2013-11-08 15:12:00,
2013-11-08 10:28:00,37.0,30.0,29.90,East,83,5.0,-999.0,76,-99.99,,,0.00,weatherlink.com 1.10,2013-11-08 15:28:00,
2013-11-08 10:43:00,36.5,29.0,29.90,NNE,15,5.0,-999.0,75,-99.99,,,0.00,weatherlink.com 1.10,2013-11-08 15:43:00,
2013-11-08 10:58:00,36.7,29.0,29.89,NNE,15,3.0,-999.0,75,-99.99,,,0.00,weatherlink.com 1.10,2013-11-08 15:58:00,
2013-11-08 11:13:00,37.6,30.0,29.89,NNE,15,0.0,-999.0,75,-99.99,,,0.00,weatherlink.com 1.10,2013-11-08 16:13:00,
2013-11-08 11:28:00,38.4,30.0,29.89,East,101,1.0,-999.0,73,-99.99,,,0.00,weatherlink.com 1.10,2013-11-08 16:28:00,
2013-11-08 11:43:00,38.1,30.0,29.89,North,357,2.0,-999.0,72,-99.99,,,0.00,weatherlink.com 1.10,2013-11-08 16:43:00,
2013-11-08 11:58:00,37.4,30.0,29.89,North,349,0.0,-999.0,75,-99.99,,,0.00,weatherlink.com 1.10,2013-11-08 16:58:00,
2013-11-08 12:13:00,35.0,31.0,29.89,NNE,15,3.0,-999.0,84,-99.99,,,0.00,weatherlink.com 1.10,2013-11-08 17:13:00,
2013-11-08 12:28:00,33.7,31.0,29.90,WNW,282,0.0,-999.0,89,-99.99,,,0.00,weatherlink.com 1.10,2013-11-08 17:28:00,
2013-11-08 12:43:00,33.2,31.0,29.89,NNW,344,0.0,-999.0,90,-99.99,,,0.00,weatherlink.com 1.10,2013-11-08 17:43:00,
2013-11-08 12:58:00,33.5,31.0,29.89,NNW,344,0.0,-999.0,91,-99.99,,,0.01,weatherlink.com 1.10,2013-11-08 17:58:00,
2013-11-08 13:13:00,35.3,33.0,29.89,North,351,1.0,-999.0,91,-99.99,,,0.03,weatherlink.com 1.10,2013-11-08 18:13:00,
2013-11-08 13:28:00,35.5,33.0,29.90,NNW,331,2.0,-999.0,90,-99.99,,,0.04,weatherlink.com 1.10,2013-11-08 18:28:00,
2013-11-08 13:43:00,34.8,32.0,29.92,SW,235,0.0,-999.0,88,-99.99,,,0.04,weatherlink.com 1.10,2013-11-08 18:43:00,
2013-11-08 13:58:00,34.2,32.0,29.92,West,259,1.0,-999.0,90,-99.99,,,0.04,weatherlink.com 1.10,2013-11-08 18:58:00,
2013-11-08 14:13:00,34.5,31.0,29.93,NNE,24,4.0,-999.0,88,-99.99,,,0.04,weatherlink.com 1.10,2013-11-08 19:13:00,
2013-11-08 14:28:00,35.0,32.0,29.93,NE,34,0.0,-999.0,88,-99.99,,,0.05,weatherlink.com 1.10,2013-11-08 19:28:00,
2013-11-08 14:43:00,34.6,31.0,29.94,SSW,211,0.0,-999.0,87,-99.99,,,0.05,weatherlink.com 1.10,2013-11-08 19:43:00,
2013-11-08 14:58:00,34.8,30.0,29.95,WNW,296,4.0,-999.0,82,-99.99,,,0.05,weatherlink.com 1.10,2013-11-08 19:58:00,
2013-11-08 15:13:00,35.0,29.0,29.95,West,261,0.0,-999.0,79,-99.99,,,0.05,weatherlink.com 1.10,2013-11-08 20:13:00,
2013-11-08 15:28:00,34.7,28.0,29.97,NW,319,7.0,-999.0,77,-99.99,,,0.05,weatherlink.com 1.10,2013-11-08 20:28:00,
2013-11-08 15:43:00,34.4,28.0,29.97,West,281,0.0,-999.0,77,-99.99,,,0.05,weatherlink.com 1.10,2013-11-08 20:43:00,
2013-11-08 15:58:00,34.2,28.0,29.98,WSW,244,0.0,-999.0,77,-99.99,,,0.05,weatherlink.com 1.10,2013-11-08 20:58:00,
2013-11-08 16:13:00,34.1,27.0,29.98,NNW,346,0.0,-999.0,76,-99.99,,,0.05,weatherlink.com 1.10,2013-11-08 21:13:00,
2013-11-08 16:28:00,34.0,27.0,29.99,NNE,24,0.0,-999.0,76,-99.99,,,0.05,weatherlink.com 1.10,2013-11-08 21:28:00,
2013-11-08 16:43:00,33.5,27.0,29.99,ESE,122,0.0,-999.0,76,-99.99,,,0.05,weatherlink.com 1.10,2013-11-08 21:43:00,
2013-11-08 16:58:00,33.7,26.0,30.00,WNW,296,0.0,-999.0,74,-99.99,,,0.05,weatherlink.com 1.10,2013-11-08 21:58:00,
2013-11-08 17:13:00,34.0,26.0,30.01,WSW,252,0.0,-999.0,72,-99.99,,,0.05,weatherlink.com 1.10,2013-11-08 22:13:00,
2013-11-08 17:28:00,34.2,26.0,30.02,WNW,299,0.0,-999.0,71,-99.99,,,0.05,weatherlink.com 1.10,2013-11-08 22:28:00,
2013-11-08 17:43:00,34.4,25.0,30.03,West,268,0.0,-999.0,69,-99.99,,,0.05,weatherlink.com 1.10,2013-11-08 22:43:00,
2013-11-08 17:58:00,34.4,25.0,30.03,WSW,247,0.0,-999.0,68,-99.99,,,0.05,weatherlink.com 1.10,2013-11-08 22:58:00,
2013-11-08 18:13:00,34.5,25.0,30.03,North,359,4.0,-999.0,67,-99.99,,,0.05,weatherlink.com 1.10,2013-11-08 23:13:00,
2013-11-08 18:28:00,34.6,25.0,30.04,WNW,290,0.0,-999.0,67,-99.99,,,0.05,weatherlink.com 1.10,2013-11-08 23:28:00,
2013-11-08 18:43:00,34.4,24.0,30.04,WNW,303,0.0,-999.0,67,-99.99,,,0.05,weatherlink.com 1.10,2013-11-08 23:43:00,
2013-11-08 18:58:00,34.5,25.0,30.04,NW,313,5.0,-999.0,67,-99.99,,,0.05,weatherlink.com 1.10,2013-11-08 23:58:00,
2013-11-08 19:14:00,34.6,25.0,30.05,North,10,0.0,-999.0,67,-99.99,,,0.05,weatherlink.com 1.10,2013-11-09 00:14:00,
2013-11-08 19:29:00,34.5,25.0,30.05,WNW,302,0.0,-999.0,67,-99.99,,,0.05,weatherlink.com 1.10,2013-11-09 00:29:00,
2013-11-08 19:44:00,34.4,24.0,30.06,NNW,338,2.0,-999.0,67,-99.99,,,0.05,weatherlink.com 1.10,2013-11-09 00:44:00,
2013-11-08 19:59:00,34.4,25.0,30.06,WNW,296,0.0,-999.0,68,-99.99,,,0.05,weatherlink.com 1.10,2013-11-09 00:59:00,
2013-11-08 20:14:00,34.5,25.0,30.07,WNW,287,0.0,-999.0,68,-99.99,,,0.05,weatherlink.com 1.10,2013-11-09 01:14:00,
2013-11-08 20:29:00,34.4,25.0,30.07,SW,235,0.0,-999.0,69,-99.99,,,0.05,weatherlink.com 1.10,2013-11-09 01:29:00,
2013-11-08 20:44:00,34.4,26.0,30.07,NNW,343,0.0,-999.0,70,-99.99,,,0.05,weatherlink.com 1.10,2013-11-09 01:44:00,
2013-11-08 20:59:00,34.4,25.0,30.08,North,10,4.0,-999.0,69,-99.99,,,0.05,weatherlink.com 1.10,2013-11-09 01:59:00,
2013-11-08 21:14:00,34.4,24.0,30.09,NNW,327,0.0,-999.0,67,-99.99,,,0.05,weatherlink.com 1.10,2013-11-09 02:14:00,
2013-11-08 21:29:00,34.6,24.0,30.09,WNW,289,7.0,-999.0,65,-99.99,,,0.05,weatherlink.com 1.10,2013-11-09 02:29:00,
2013-11-08 21:44:00,34.4,24.0,30.09,North,3,5.0,-999.0,65,-99.99,,,0.05,weatherlink.com 1.10,2013-11-09 02:44:00,
2013-11-08 21:59:00,34.4,24.0,30.09,NNW,328,3.0,-999.0,66,-99.99,,,0.05,weatherlink.com 1.10,2013-11-09 02:59:00,
2013-11-08 22:14:00,34.4,24.0,30.09,NNW,334,0.0,-999.0,65,-99.99,,,0.05,weatherlink.com 1.10,2013-11-09 03:14:00,
2013-11-08 22:29:00,34.4,24.0,30.09,NNW,328,2.0,-999.0,65,-99.99,,,0.05,weatherlink.com 1.10,2013-11-09 03:29:00,
2013-11-08 22:44:00,34.2,23.0,30.09,NW,307,0.0,-999.0,65,-99.99,,,0.05,weatherlink.com 1.10,2013-11-09 03:44:00,
2013-11-08 22:59:00,34.4,24.0,30.09,WNW,286,0.0,-999.0,65,-99.99,,,0.05,weatherlink.com 1.10,2013-11-09 03:59:00,
2013-11-08 23:14:00,34.3,24.0,30.10,NNW,348,3.0,-999.0,65,-99.99,,,0.05,weatherlink.com 1.10,2013-11-09 04:14:00,
2013-11-08 23:29:00,34.3,24.0,30.10,WNW,299,2.0,-999.0,66,-99.99,,,0.05,weatherlink.com 1.10,2013-11-09 04:29:00,
2013-11-08 23:44:00,34.1,24.0,30.10,NW,310,5.0,-999.0,66,-99.99,,,0.05,weatherlink.com 1.10,2013-11-09 04:44:00,
2013-11-08 23:59:00,34.0,23.0,30.10,WNW,295,4.0,-999.0,64,-99.99,,,0.05,weatherlink.com 1.10,2013-11-09 04:59:00,